Tracking 29892 objects as of 21-Nov-2024
HD Live streaming from Space Station
objects crossing your sky now

STARLINK-11098

Track STARLINK-11098 now!
10-day predictions
STARLINK-11098 is classified as:


NORAD ID: 59760
Int'l Code: 2024-091H
Perigee: 366.0 km
Apogee: 367.7 km
Inclination: 53.2 °
Period: 91.7 minutes
Semi major axis: 6737 km
RCS: Unknown
Launch date: May 14, 2024
Source: United States (US)
Launch site: AIR FORCE WESTERN TEST RANGE (AFWTR)
Your satellite tracking list
Your tracking list is empty




NASA's NSSDC Master Catalog

Two Line Element Set (TLE):
1 59760U 24091H   24325.54042491 -.00000011  00000-0  47657-5 0  9995
2 59760  53.1564  23.5852 0001224  79.0035 281.1120 15.69708745 31046
Source of the keplerian elements: AFSPC